Volver al catálogo

ONEWEB-0136

ActivoComunicacionesPO
NORAD 47282·PAYLOAD·🇬🇧 United Kingdom

Lanzado Dec 18, 2020 desde Vostochny Cosmodrome

Loading…

Próximos Pases (próximas 24 horas)

TLE

ActualizadoSource: CelesTrak SupGP

Época: Sep 14, 2026, 13:33 UTC

1 47282C 20100AA  26257.56472222  .00001973  00000+0  54915-2 0  2570
2 47282  87.8983 332.9088 0001731  93.2040  16.4647 13.12437331    18

Sigue ONEWEB-0136 en tiempo real con AllMySat

Download on the App Store